Regional Weather Roundup
Issued by NWS Jackson, KY

Home | Current Version | Previous Version | Graphics & Text | Print | Product List | Glossary On
Versions: 1 2 3 4 5 6 7 8 9 10 11 12 13 14 15 16 17 18 19 20 21 22 23 24 25 26 27 28 29 30 31 32 33 34 35 36 37 38 39 40 41 42 43 44 45 46 47 48 49 50
000
ASUS43 KJKL 282110
RWRJKL

EAST KENTUCKY HOURLY WEATHER ROUNDUP
NATIONAL WEATHER SERVICE JACKSON KY
500 PM EDT SAT MAR 28 2015

NOTE: "FAIR" INDICATES FEW OR NO CLOUDS BELOW 12,000 FEET WITH
NO SIGNIFICANT WEATHER AND/OR OBSTRUCTIONS TO VISIBILITY.

* THESE REPORTS ARE NOT UNDER NWS QUALITY CONTROL AND MAY NOT
  REPORT WEATHER SUCH AS PRECIPITATION AND FOG.

KYZ079-080-083-085-087-088-110-112-115-119-120-282200
...EASTERN KENTUCKY...

CITY           SKY/WX    TMP DP  RH WIND       PRES   REMARKS
JACKSON        SUNNY     38  10  31 VRB5      30.19S WCI  34
LONDON         SUNNY     42  10  27 N15       30.20S
SOMERSET*      SUNNY     39  14  35 N8        30.25S WCI  34
MONTICELLO*    SUNNY     43  15  32 N9        30.25F
MIDDLESBORO*   SUNNY     42  15  32 N13G18    30.19S
HAZARD APT*    CLEAR     39   7  26 NW9G17    30.19R WCI  33
BLACK MTN*       N/A     27  27 100 N5          N/A  WCI  21
PIKEVILLE APT* SUNNY     36   9  32 NW13G18   30.18R WCI  27
BIG SANDY*     CLEAR     38  10  32 W8        30.19S WCI  32
MOREHEAD APT*  CLEAR     36  12  38 NW17G24   30.27R WCI  25
$$

KYZ035-036-041-042-044-050-067-078-099-282200
...CENTRAL KENTUCKY...

CITY           SKY/WX    TMP DP  RH WIND       PRES   REMARKS
MT STERLING*   MOSUNNY   37  18  44 N8        30.25S WCI  31
FLEMING/MASON* SUNNY     34  12  40 NW12      30.27S WCI  25
DANVILLE*      SUNNY     37  18  44 N10       30.25S WCI  30
RICHMOND*      MOSUNNY   36  12  38 NE6       30.24S WCI  31
LEXINGTON      SUNNY     40  14  34 VRB5      30.25S
FRANKFORT      SUNNY     39  10  30 NW10      30.25S WCI  32
$$

KYZ091>093-OHZ055-061-077-WVZ005-015-034-035-042-282200
...SOUTHERN OHIO/WEST VIRGINIA...

CITY           SKY/WX    TMP DP  RH WIND       PRES   REMARKS
COVINGTON      SUNNY     36  12  37 NW6       30.26S WCI  31
COLUMBUS       MOSUNNY   32  12  43 NW13      30.26S WCI  22
DAYTON         MOSUNNY   34  13  41 NW8       30.27S WCI  27
WILMINGTON     MOSUNNY   33  12  41 NW10      30.25S WCI  25
HUNTINGTON     SUNNY     36   7  29 NW13      30.23S WCI  27
CHARLESTON     MOSUNNY   34   4  28 W8G18     30.20S WCI  27
PINEVILLE*     MOSUNNY   37  12  36 MISG      30.18S
BECKLEY        MOSUNNY   28   5  37 NW12G21   30.08S WCI  18
BLUEFIELD      SUNNY     31   5  33 NW16G25   30.06R WCI  20
$$

VAZ002-007-008-TNZ017-027-036-066-071-282200
...SOUTHWEST VIRGINIA/EAST TENNESSEE...

CITY           SKY/WX    TMP DP  RH WIND       PRES   REMARKS
WISE*          SUNNY     36   9  32 NW12      30.11R WCI  27
JONESVILLE*    CLEAR     41   9  26 NW7       30.18S
ABINGDON*      MOSUNNY   37   8  29 N8        30.11R WCI  31
BRISTOL        MOSUNNY   42  14  32 N13       30.14R
KNOXVILLE      MOSUNNY   46  15  28 SW8G17    30.16F
OAK RIDGE      SUNNY     48  10  21 VRB7      30.18S
CROSSVILLE     SUNNY     41   5  22 NW9       30.17S
NASHVILLE      MOSUNNY   48  10  21 N10       30.25F
$$

...KEY TO REMARKS...
VSB - VISIBILITY IN MILES
WCI - WIND CHILL INDEX
HX  - HEAT INDEX

$$



USA.gov is the U.S. government's official web portal to all federal, state and local government web resources and services.